Wind_Speed
12 12 13 14 14 15 15 15 16 16 17 17 16 15 15 15 15 15 15 14 14 14 13 13 13 14 13 13 14 14 15 15 15 15 15 16 16 16 16 16 16 17 18
14 14 14 14 15 16 15 16 16 17 17 17 17 16 15 15 15 15 15 15 15 14 14 14 14 14 14 15 15 15 16 15 15 16 17 17 17 17 17 17 18 19 19
15 15 15 15 16 16 17 17 17 17 18 18 17 16 16 16 16 15 15 15 15 15 15 15 14 14 14 15 16 16 16 16 15 16 17 17 18 18 19 19 20 20 20
16 16 16 16 17 17 17 17 17 18 18 18 17 16 16 16 16 16 15 15 15 15 16 16 16 15 15 15 15 15 15 15 15 16 17 17 18 18 19 20 20 20 20
17 17 17 17 17 18 18 18 18 18 18 18 17 17 17 16 16 16 16 16 16 16 16 16 16 15 15 15 15 16 16 16 16 16 17 18 18 18 19 19 20 21 21
17 18 18 18 18 19 19 18 18 19 18 18 17 17 17 17 17 17 17 16 16 17 17 16 16 15 16 15 15 16 16 17 17 17 17 18 19 19 19 19 20 21 21
19 19 19 19 19 19 18 18 18 18 18 18 18 17 17 17 17 17 18 17 17 17 18 18 17 17 16 16 16 17 17 17 18 19 19 19 20 20 21 21 21 22 22
19 20 20 20 20 19 19 19 19 19 18 18 18 18 18 18 18 18 18 18 19 19 19 19 19 19 18 18 18 18 18 19 19 19 19 20 20 21 21 22 22 22 23
20 21 21 21 20 20 19 19 19 19 19 18 18 19 19 18 18 18 18 18 19 20 20 19 19 19 19 19 19 19 20 20 20 20 20 20 20 21 22 22 23 23 23
22 21 21 21 21 20 19 19 20 20 19 19 19 19 19 19 19 19 19 19 20 20 20 19 19 19 19 19 20 20 20 21 21 21 21 21 21 22 23 23 23 22 22
22 21 20 20 21 21 20 21 21 20 19 19 20 20 20 20 20 20 20 20 20 20 20 20 19 19 20 20 21 21 21 22 23 23 22 22 22 23 23 23 22 22 23
20 20 20 20 21 22 21 22 22 21 21 21 21 21 21 21 21 21 22 22 21 22 21 21 22 21 21 22 22 22 23 23 23 23 23 23 23 23 23 22 23 23 24
20 21 21 21 21 21 22 22 22 22 22 22 22 22 22 22 22 22 23 22 22 22 22 22 23 23 23 23 23 23 24 24 24 23 23 23 23 22 22 22 23 24 24
21 22 22 22 22 22 21 21 22 23 23 22 22 22 23 23 23 23 23 23 22 23 23 23 23 24 24 24 25 25 25 24 23 23 24 23 23 23 23 23 24 24 25
23 23 24 23 23 23 22 22 23 23 23 23 23 23 23 23 22 23 22 22 22 23 23 23 24 25 25 25 25 25 25 25 24 24 24 23 23 23 23 24 24 24 25
24 24 24 24 23 23 23 23 23 23 24 23 23 23 23 23 23 23 23 23 24 24 24 24 24 25 25 26 26 25 25 24 24 25 25 24 24 24 25 25 25 25 25
24 24 24 24 24 24 24 24 24 24 23 23 24 23 23 23 24 24 25 24 24 25 25 25 25 25 26 25 25 24 23 24 24 24 24 25 25 25 25 25 25 25 25
23 23 24 24 24 25 25 25 24 23 23 23 24 24 24 25 25 25 25 25 25 25 26 26 26 26 25 25 24 24 23 24 24 24 24 24 24 25 25 25 25 25 25
23 23 24 24 24 25 25 24 24 24 24 23 24 24 25 26 26 26 26 26 26 26 26 26 25 25 25 25 25 24 24 24 24 24 25 24 24 24 25 25 25 25 25
24 24 24 23 24 24 24 24 24 24 24 24 24 24 24 26 26 26 27 27 26 26 26 26 26 26 25 25 25 24 24 24 25 25 24 24 24 25 25 25 25 25 25
25 25 25 24 24 25 25 25 25 25 25 25 25 24 25 26 26 27 27 26 26 26 26 26 26 26 25 25 25 25 24 24 24 24 24 24 25 25 25 25 25 25 25
27 27 26 26 26 26 26 26 26 26 26 27 27 27 26 26 26 26 27 26 26 26 27 26 26 25 25 25 24 24 24 24 24 24 25 25 25 25 25 25 25 25 25
26 27 27 27 27 27 27 27 27 27 28 28 27 28 28 28 27 27 27 26 26 26 26 26 25 25 25 25 24 24 24 24 24 24 24 24 25 25 26 26 26 26 25
27 27 27 27 27 28 27 27 27 27 27 28 28 28 29 29 27 27 27 27 26 26 26 25 25 25 25 25 25 25 24 24 24 24 24 24 24 25 25 25 25 25 25
27 27 27 28 28 28 28 27 27 28 28 29 28 28 28 28 27 26 26 26 25 25 25 25 26 26 26 25 24 24 24 24 24 24 24 25 24 24 24 25 25 25 25
27 27 27 27 27 27 28 27 27 28 27 27 28 28 28 26 26 25 25 26 26 26 26 26 26 26 26 25 24 24 24 24 24 24 24 24 24 24 24 24 25 25 25
Wind_Direction
275 278 281 286 290 296 296 295 296 298 299 298 295 293 294 296 296 297 298 298 300 300 297 292 287 283 275 271 273 274 275 274 275 275 276 278 278 278 277 278 279 280 279
274 273 279 285 291 295 298 298 297 298 298 296 294 293 293 294 294 296 298 298 297 296 296 294 289 283 278 274 273 274 275 276 276 275 276 277 278 278 278 280 282 281 280
275 273 277 283 288 293 296 297 297 299 299 296 293 292 294 294 294 295 296 296 294 293 294 292 290 286 281 277 276 276 276 275 277 278 277 278 279 280 280 281 284 283 280
273 275 280 284 288 291 294 297 300 301 300 299 296 297 299 295 294 297 296 295 294 295 296 294 289 284 282 278 277 277 278 277 279 281 282 282 282 280 280 282 283 283 282
270 275 281 283 286 290 294 296 299 301 300 301 303 301 300 298 295 295 296 295 293 296 296 294 291 286 282 278 277 278 278 278 279 281 282 283 283 282 282 283 284 284 284
268 272 278 282 286 289 293 296 298 298 298 300 299 298 298 298 298 298 297 297 297 296 295 293 290 286 282 280 280 279 279 279 279 281 282 283 285 285 284 284 285 285 285
268 270 273 278 283 287 289 293 296 298 298 297 298 299 297 298 300 300 298 295 298 296 293 293 290 288 287 283 282 282 282 282 281 282 282 282 283 284 284 285 287 287 287
267 269 271 274 280 284 286 289 292 294 295 294 295 297 298 298 299 300 300 299 299 297 293 291 290 288 286 284 281 282 283 285 285 283 282 282 282 283 285 286 287 286 288
266 267 269 272 277 281 284 287 289 290 292 292 293 293 295 296 297 298 298 298 299 299 295 291 290 288 285 284 283 283 284 284 285 284 283 283 284 285 286 286 286 287 288
269 266 267 270 275 279 282 284 286 288 289 290 292 292 292 292 293 297 298 298 298 297 296 291 289 287 286 284 284 285 285 283 283 282 282 283 285 287 286 286 286 289 291
265 265 270 273 276 278 281 282 284 284 286 288 290 291 291 290 290 293 296 297 297 296 296 293 289 288 287 285 284 283 284 283 283 283 283 283 285 287 286 286 286 289 291
268 268 272 276 276 277 280 282 281 282 285 286 286 287 288 288 290 292 293 294 294 296 295 294 291 289 287 286 284 283 284 283 284 284 285 285 285 285 286 286 287 289 292
269 272 273 275 277 277 279 282 282 283 284 285 285 284 286 287 289 291 292 293 293 293 292 292 291 291 290 289 286 284 285 284 284 283 283 284 284 286 287 288 289 291 292
269 272 274 275 276 277 279 281 283 284 284 284 283 283 284 287 287 289 290 290 292 293 291 291 292 293 291 289 287 285 284 284 282 281 283 283 284 284 286 289 290 292 293
268 271 273 275 275 277 280 283 285 285 284 284 283 284 284 285 286 288 291 292 292 293 292 292 293 294 292 290 289 286 285 282 281 281 281 281 283 284 286 288 290 291 292
267 269 271 273 276 278 281 283 286 287 286 283 284 284 286 284 285 288 290 292 292 293 293 293 293 294 293 291 289 286 284 282 282 282 281 281 282 284 286 288 289 291 292
267 269 271 273 275 277 279 282 285 286 288 286 282 281 282 283 284 286 287 289 291 292 293 294 294 294 293 292 290 288 286 284 283 283 283 282 282 284 286 287 289 290 292
268 269 271 273 275 275 276 280 283 284 285 286 284 281 281 281 282 284 286 287 290 291 293 293 292 292 291 291 290 288 288 286 285 285 284 284 284 284 285 286 288 289 290
269 270 271 271 273 274 275 278 281 282 282 284 284 282 282 282 281 282 284 287 289 290 291 291 290 290 290 289 290 289 288 287 285 285 285 283 284 286 287 288 290 290 291
270 270 271 273 274 275 276 277 279 280 281 282 284 283 283 284 282 282 283 286 288 289 290 290 290 289 289 288 289 290 288 286 285 285 284 284 285 287 288 290 291 292 293
270 270 271 274 275 276 277 277 277 278 280 281 283 283 283 285 284 284 284 285 286 287 288 290 290 289 288 288 288 288 287 286 286 284 285 285 287 288 289 290 291 292 294
269 272 272 273 275 276 277 276 276 277 279 281 281 282 284 285 287 286 285 285 286 285 285 287 289 289 288 287 287 286 286 285 285 285 286 286 287 287 288 289 290 291 292
270 272 273 273 274 276 277 276 276 276 278 279 281 283 282 283 283 284 285 285 284 284 284 285 287 287 288 287 286 287 287 286 285 286 286 286 286 287 287 288 289 290 290
269 271 272 273 274 276 278 278 278 279 279 280 281 283 281 281 282 283 284 284 283 283 284 284 285 286 287 287 285 284 286 288 288 286 286 286 287 287 288 289 289 289 289
269 271 272 273 274 275 276 277 278 279 279 280 280 280 281 280 282 283 282 281 281 282 284 285 286 286 285 285 285 284 284 286 288 288 286 286 287 287 288 289 290 290 290
269 271 272 273 273 273 274 276 277 278 279 279 281 280 279 279 280 279 278 278 280 282 283 286 288 287 286 285 285 285 285 286 287 288 288 288 287 287 288 290 291 290 289
Height
5846 5845 5845 5845 5844 5843 5841 5840 5838 5837 5835 5834 5833 5832 5831 5829 5828 5827 5826 5825 5823 5822 5821 5820 5819 5819 5818 5818 5818 5818 5818 5818 5817 5817 5816 5816 5815 5814 5814 5813 5813 5812 5811
5841 5842 5841 5841 5840 5839 5837 5836 5834 5833 5831 5830 5829 5828 5827 5826 5824 5823 5822 5821 5819 5818 5817 5816 5815 5815 5814 5814 5814 5814 5814 5813 5813 5813 5812 5811 5811 5810 5810 5809 5808 5807 5806
5838 5838 5838 5837 5836 5835 5833 5832 5830 5828 5827 5826 5825 5824 5823 5821 5820 5819 5818 5816 5815 5814 5813 5813 5812 5811 5810 5810 5810 5810 5809 5809 5809 5808 5808 5807 5806 5806 5805 5804 5803 5802 5801
5834 5834 5834 5833 5832 5831 5829 5828 5826 5824 5823 5821 5819 5818 5818 5817 5816 5814 5813 5812 5811 5810 5809 5808 5807 5807 5806 5806 5806 5805 5805 5805 5804 5804 5803 5802 5801 5801 5800 5799 5798 5797 5795
5829 5830 5829 5829 5828 5826 5825 5824 5822 5820 5818 5817 5815 5814 5813 5812 5811 5810 5809 5808 5807 5806 5805 5804 5803 5802 5802 5802 5801 5801 5801 5800 5800 5799 5798 5797 5796 5795 5794 5793 5792 5791 5789
5825 5825 5825 5824 5823 5822 5821 5820 5818 5816 5815 5813 5811 5810 5809 5808 5807 5806 5805 5804 5803 5802 5800 5799 5798 5798 5797 5797 5797 5796 5796 5796 5795 5794 5793 5792 5792 5790 5789 5788 5786 5785 5784
5820 5820 5820 5820 5819 5818 5816 5815 5813 5812 5810 5809 5808 5806 5805 5804 5803 5802 5801 5800 5798 5797 5796 5795 5794 5793 5792 5792 5792 5792 5791 5790 5790 5789 5788 5787 5786 5785 5784 5782 5781 5779 5778
5814 5814 5814 5814 5814 5813 5811 5810 5809 5807 5806 5805 5804 5802 5802 5800 5799 5798 5796 5795 5794 5792 5791 5790 5789 5788 5788 5787 5787 5786 5786 5785 5784 5783 5782 5781 5780 5778 5777 5776 5775 5773 5771
5807 5808 5808 5808 5808 5807 5806 5805 5804 5803 5802 5800 5799 5798 5798 5797 5795 5794 5792 5791 5789 5787 5786 5785 5784 5783 5782 5782 5781 5781 5780 5779 5777 5777 5776 5775 5773 5772 5771 5769 5768 5766 5765
5801 5801 5802 5802 5802 5802 5801 5800 5799 5798 5797 5796 5795 5794 5793 5792 5791 5789 5788 5786 5784 5783 5781 5780 5779 5778 5777 5776 5775 5774 5773 5772 5771 5770 5769 5768 5767 5765 5764 5762 5761 5759 5757
5795 5795 5796 5796 5796 5795 5795 5795 5794 5792 5792 5791 5790 5789 5788 5787 5786 5784 5782 5781 5779 5777 5776 5774 5773 5772 5771 5770 5769 5768 5767 5766 5765 5763 5762 5761 5760 5758 5757 5755 5753 5752 5750
5789 5789 5790 5789 5789 5789 5789 5788 5788 5787 5786 5786 5784 5783 5782 5781 5780 5778 5777 5775 5774 5772 5770 5769 5767 5766 5765 5763 5762 5761 5760 5759 5758 5756 5755 5754 5753 5751 5750 5748 5746 5744 5743
5782 5783 5784 5783 5783 5783 5783 5782 5781 5781 5780 5779 5778 5777 5776 5775 5774 5772 5771 5769 5768 5766 5765 5763 5762 5760 5758 5757 5755 5754 5753 5751 5750 5749 5748 5747 5746 5744 5743 5741 5739 5737 5735
5776 5776 5777 5777 5777 5777 5776 5776 5775 5775 5774 5773 5772 5771 5770 5769 5768 5766 5765 5763 5761 5760 5758 5757 5755 5753 5752 5750 5748 5747 5745 5744 5743 5742 5741 5740 5738 5737 5736 5734 5732 5730 5728
5769 5770 5770 5770 5770 5770 5769 5769 5769 5768 5767 5766 5765 5764 5764 5763 5761 5760 5758 5757 5755 5754 5752 5751 5749 5747 5745 5743 5741 5739 5738 5736 5735 5735 5733 5732 5731 5730 5728 5727 5725 5723 5721
5762 5763 5763 5763 5763 5763 5762 5762 5761 5761 5760 5759 5758 5757 5757 5756 5755 5754 5752 5751 5749 5748 5746 5744 5742 5740 5738 5736 5734 5732 5730 5729 5728 5727 5726 5725 5724 5722 5721 5719 5717 5715 5713
5755 5755 5755 5756 5756 5755 5755 5755 5754 5754 5753 5752 5751 5750 5750 5749 5748 5747 5745 5744 5743 5741 5739 5737 5735 5733 5731 5728 5726 5725 5723 5722 5720 5719 5718 5717 5716 5715 5713 5712 5710 5708 5706
5747 5748 5748 5748 5748 5748 5748 5748 5747 5746 5746 5745 5744 5743 5742 5741 5741 5739 5738 5737 5736 5734 5732 5730 5728 5725 5723 5721 5719 5717 5716 5714 5713 5712 5711 5709 5708 5707 5705 5704 5702 5700 5698
5740 5740 5741 5741 5741 5740 5740 5740 5740 5739 5738 5738 5736 5735 5735 5734 5733 5732 5731 5730 5728 5726 5724 5722 5720 5718 5716 5714 5712 5710 5709 5707 5706 5705 5703 5702 5701 5699 5698 5696 5694 5692 5690
5732 5733 5733 5733 5733 5733 5733 5733 5732 5732 5731 5730 5729 5728 5727 5726 5725 5724 5723 5722 5720 5719 5717 5714 5712 5710 5708 5707 5705 5703 5701 5700 5699 5698 5696 5695 5693 5692 5690 5688 5686 5685 5683
5724 5725 5725 5725 5725 5725 5725 5725 5725 5724 5724 5723 5722 5720 5719 5718 5717 5716 5715 5713 5712 5710 5709 5707 5705 5703 5701 5699 5697 5696 5694 5693 5691 5690 5688 5687 5686 5684 5683 5681 5679 5677 5676
5716 5716 5717 5717 5717 5717 5717 5717 5717 5716 5715 5715 5714 5712 5711 5710 5709 5707 5706 5705 5704 5702 5700 5698 5697 5695 5693 5692 5690 5689 5687 5685 5684 5683 5681 5680 5678 5677 5675 5673 5672 5670 5668
5708 5708 5709 5709 5709 5709 5708 5708 5708 5708 5707 5706 5705 5704 5703 5702 5700 5699 5698 5697 5695 5694 5692 5691 5689 5687 5686 5684 5683 5681 5680 5678 5676 5675 5674 5672 5670 5669 5667 5666 5664 5662 5660
5700 5700 5700 5700 5700 5700 5700 5699 5699 5699 5698 5697 5696 5695 5694 5693 5692 5691 5689 5688 5687 5685 5684 5683 5681 5680 5678 5676 5675 5673 5672 5670 5669 5667 5666 5664 5663 5661 5659 5658 5656 5654 5653
5691 5691 5691 5691 5691 5691 5691 5691 5690 5690 5689 5688 5687 5686 5685 5684 5683 5682 5681 5680 5679 5678 5676 5675 5673 5672 5670 5668 5667 5666 5664 5663 5661 5659 5658 5656 5655 5653 5651 5650 5648 5646 5645
5682 5683 5683 5682 5682 5682 5682 5681 5681 5680 5679 5678 5677 5676 5675 5675 5674 5673 5672 5671 5670 5670 5668 5667 5665 5664 5662 5661 5659 5658 5656 5655 5653 5651 5649 5648 5646 5645 5643 5642 5640 5638 5637